Location: Arcizac
(43.0933°N, 0.0112°E)
Time: 17:30:51
(UTC+00:00)

SKYMED 2 - Pass Details

Date: 14 December 2019
Orbit: 621 x 623 km, 97.9° (Epoch: 24 January)

Event Time Altitude Azimuth Distance (km) Brightness Sun altitude
Exits shadow 17:53:22 14° 23° (NNE) 1,758 5.5 -15.4°
Maximum altitude 17:57:02 56° 100° (E) 740 3.6 -16.1°
Drops below altitude 10° 18:01:17 10° 179° (S) 1,985 6.3 -16.8°
Sets 18:03:29 0° 184° (S) 2,886 7.3 -17.2°
